{"data":{"norad_id":68232,"intl_designator":"2026-054A","name":"STARLINK-37027","alt_names":[],"object_type":"PAYLOAD","status":"ACTIVE","operator":null,"country":"US","launch_date":"2026-03-17","launch_site_code":"AFETR","launch_vehicle":null,"mission":null,"orbit_class":"UNKNOWN","rcs_meters":null,"size_class":null,"mass_kg":null,"dimensions":null,"purposes":["comms"],"wikipedia_slug":null,"has_3d_model":false,"image_url":null,"decayed_at":null,"tle_current":{"epoch":"2026-05-24T16:50:48.037632Z","epoch_age_seconds":103882,"freshness":"FRESH","line1":"1 68232U 26054A   26144.70194488  .00026748  00000+0  79966-3 0  9992","line2":"2 68232  53.1600 297.0631 0000598  26.7375 333.3658 15.34411131 10723","mean_motion":15.34411131,"eccentricity":5.98e-5,"inclination_deg":53.16,"raan_deg":297.0631,"arg_perigee_deg":26.7375,"mean_anomaly_deg":333.3658,"bstar":0.00079966,"rev_number":1072,"period_min":93.847077286355,"perigee_km":462.26107646138,"apogee_km":463.07923699732,"semimajor_km":6840.8071567294,"source":"CELESTRAK","updated_at":"2026-05-25T13:38:21.882758Z"}}}